HUZAR03 EPMB-EPMB

Flight info

Callsign HUZAR03
Flight time 0h 41m
Altitude 2500
Route EPMBG EPPRK EPOKR
Aircraft F35/M-SDE3RV/LB1

Departure

Time 2026-04-25 17:14
Airport Malbork Królewo Air Base (EPMB)

Arrival

Time 2026-04-25 17:56
Airport Malbork Królewo Air Base (EPMB)
Time Latitude Longitude Altitude Speed Heading
2026-04-25 17:01 54.03178 19.14768 14 ft 0 kts 275°
2026-04-25 17:07 54.03177 19.14755 17 ft 5 kts 265°
2026-04-25 17:07 54.03138 19.14660 14 ft 14 kts 226°
2026-04-25 17:07 54.03106 19.14596 14 ft 9 kts 217°
2026-04-25 17:07 54.03014 19.14603 14 ft 19 kts 169°
2026-04-25 17:08 54.02948 19.14625 15 ft 0 kts 169°
2026-04-25 17:09 54.02947 19.14625 15 ft 2 kts 169°
2026-04-25 17:09 54.02898 19.14641 15 ft 8 kts 168°
2026-04-25 17:09 54.02887 19.14645 16 ft 0 kts 168°
2026-04-25 17:13 54.02853 19.14655 19 ft 12 kts 171°
2026-04-25 17:13 54.02773 19.14559 21 ft 19 kts 257°
2026-04-25 17:14 54.02769 19.14519 22 ft 0 kts 259°
2026-04-25 17:14 54.02705 19.13940 27 ft 113 kts 260°
2026-04-25 17:14 54.02524 19.12235 176 ft 194 kts 261°
2026-04-25 17:14 54.02272 19.09849 1160 ft 217 kts 262°
2026-04-25 17:15 54.02387 19.07412 1842 ft 207 kts 298°
2026-04-25 17:15 54.03460 19.05809 2182 ft 214 kts 338°
2026-04-25 17:15 54.04917 19.05218 2171 ft 217 kts 347°
2026-04-25 17:15 54.06404 19.04854 2168 ft 215 kts 348°
2026-04-25 17:16 54.07888 19.04467 2172 ft 216 kts 348°
2026-04-25 17:16 54.09368 19.04067 2182 ft 216 kts 347°
2026-04-25 17:16 54.10853 19.03661 2203 ft 216 kts 347°
2026-04-25 17:16 54.12336 19.03258 2212 ft 215 kts 347°
2026-04-25 17:17 54.13790 19.02745 2221 ft 211 kts 333°
2026-04-25 17:17 54.15088 19.01583 2221 ft 209 kts 326°
2026-04-25 17:17 54.16314 19.00247 2227 ft 210 kts 323°
2026-04-25 17:17 54.17519 18.98849 2215 ft 208 kts 322°
2026-04-25 17:18 54.18709 18.97430 2212 ft 209 kts 322°
2026-04-25 17:18 54.19895 18.95999 2210 ft 208 kts 322°
2026-04-25 17:18 54.21080 18.94561 2202 ft 209 kts 321°
2026-04-25 17:18 54.22261 18.93123 2207 ft 208 kts 321°
2026-04-25 17:19 54.23432 18.91696 2216 ft 208 kts 321°
2026-04-25 17:19 54.24611 18.90258 2209 ft 210 kts 321°
2026-04-25 17:19 54.25794 18.88816 2211 ft 208 kts 321°
2026-04-25 17:19 54.26976 18.87374 2207 ft 209 kts 321°
2026-04-25 17:20 54.28159 18.85932 2222 ft 209 kts 321°
2026-04-25 17:20 54.29342 18.84491 2215 ft 208 kts 321°
2026-04-25 17:20 54.30523 18.83054 2221 ft 209 kts 321°
2026-04-25 17:20 54.31708 18.81612 2209 ft 208 kts 321°
2026-04-25 17:21 54.32886 18.80178 2213 ft 209 kts 321°
2026-04-25 17:21 54.34100 18.78822 2214 ft 209 kts 329°
2026-04-25 17:21 54.35441 18.77786 2208 ft 212 kts 334°
2026-04-25 17:21 54.36816 18.76887 2205 ft 212 kts 339°
2026-04-25 17:22 54.38302 18.77033 2228 ft 227 kts 19°
2026-04-25 17:22 54.38756 18.77447 2241 ft 231 kts 26°
2026-04-25 17:22 54.41207 18.78271 2205 ft 213 kts 344°
2026-04-25 17:22 54.42626 18.77596 2208 ft 210 kts 332°
2026-04-25 17:23 54.43910 18.76419 2216 ft 209 kts 325°
2026-04-25 17:23 54.45114 18.75117 2215 ft 207 kts 323°
2026-04-25 17:23 54.46289 18.73774 2208 ft 206 kts 322°
2026-04-25 17:23 54.47483 18.72370 2205 ft 207 kts 322°
2026-04-25 17:24 54.48658 18.70975 2197 ft 206 kts 321°
2026-04-25 17:24 54.49833 18.69571 2189 ft 206 kts 321°
2026-04-25 17:24 54.51004 18.68168 2183 ft 204 kts 321°
2026-04-25 17:24 54.52179 18.66759 2183 ft 205 kts 321°
2026-04-25 17:25 54.53350 18.65354 2192 ft 206 kts 321°
2026-04-25 17:25 54.54518 18.63955 2198 ft 205 kts 321°
2026-04-25 17:25 54.55691 18.62549 2203 ft 205 kts 321°
2026-04-25 17:25 54.56861 18.61146 2204 ft 205 kts 321°
2026-04-25 17:26 54.57635 18.60216 2201 ft 205 kts 321°
2026-04-25 17:26 54.58800 18.58822 2200 ft 204 kts 321°
2026-04-25 17:26 54.59971 18.57419 2195 ft 205 kts 321°
2026-04-25 17:26 54.61139 18.56019 2189 ft 204 kts 321°
2026-04-25 17:27 54.62309 18.54616 2186 ft 206 kts 321°
2026-04-25 17:27 54.63485 18.53239 2184 ft 205 kts 328°
2026-04-25 17:27 54.64929 18.52954 2029 ft 224 kts
2026-04-25 17:27 54.65885 18.53690 1829 ft 227 kts 22°
2026-04-25 17:28 54.67798 18.53994 1784 ft 201 kts 320°
2026-04-25 17:28 54.67961 18.51870 1634 ft 208 kts 234°
2026-04-25 17:28 54.66571 18.50842 1842 ft 227 kts 200°
2026-04-25 17:28 54.65021 18.50263 2042 ft 228 kts 197°
2026-04-25 17:29 54.63438 18.49820 1717 ft 228 kts 192°
2026-04-25 17:29 54.61931 18.50750 1652 ft 239 kts 147°
2026-04-25 17:29 54.61287 18.53256 1667 ft 245 kts 65°
2026-04-25 17:29 54.62485 18.55037 1597 ft 225 kts 18°
2026-04-25 17:30 54.63892 18.54899 1717 ft 202 kts 320°
2026-04-25 17:30 54.64350 18.52772 1716 ft 203 kts 267°
2026-04-25 17:30 54.63938 18.50417 1924 ft 209 kts 239°
2026-04-25 17:30 54.62590 18.49529 1948 ft 241 kts 169°
2026-04-25 17:31 54.61678 18.51764 1700 ft 247 kts 81°
2026-04-25 17:31 54.61793 18.54680 1767 ft 248 kts 89°
2026-04-25 17:31 54.61893 18.57639 1922 ft 243 kts 71°
2026-04-25 17:31 54.62787 18.59997 2112 ft 229 kts 29°
2026-04-25 17:32 54.64255 18.60619 1886 ft 214 kts 346°
2026-04-25 17:32 54.65328 18.59213 1521 ft 199 kts 290°
2026-04-25 17:32 54.65208 18.56875 1399 ft 206 kts 253°
2026-04-25 17:32 54.64736 18.54600 1292 ft 198 kts 266°
2026-04-25 17:33 54.64729 18.52226 1294 ft 197 kts 259°
2026-04-25 17:33 54.63973 18.50157 1430 ft 206 kts 239°
2026-04-25 17:33 54.62992 18.48324 1588 ft 214 kts 218°
2026-04-25 17:33 54.61517 18.48446 1693 ft 246 kts 142°
2026-04-25 17:34 54.61080 18.51197 1410 ft 249 kts 81°
2026-04-25 17:34 54.61448 18.54052 1429 ft 244 kts 68°
2026-04-25 17:34 54.62100 18.56726 1801 ft 238 kts 58°
2026-04-25 17:34 54.62986 18.59113 2240 ft 239 kts 45°
2026-04-25 17:35 54.64210 18.60890 2689 ft 217 kts 10°
2026-04-25 17:35 54.65594 18.60640 2435 ft 204 kts 326°
2026-04-25 17:35 54.66468 18.58886 1728 ft 189 kts 289°
2026-04-25 17:35 54.66394 18.56655 1487 ft 195 kts 248°
2026-04-25 17:36 54.65648 18.54665 1434 ft 197 kts 252°
2026-04-25 17:36 54.64596 18.53723 1268 ft 235 kts 154°
2026-04-25 17:36 54.63696 18.56061 1598 ft 238 kts 117°
2026-04-25 17:36 54.63064 18.58754 1871 ft 245 kts 103°
2026-04-25 17:37 54.63070 18.61645 2052 ft 240 kts 71°
2026-04-25 17:37 54.63916 18.63984 2288 ft 225 kts 32°
2026-04-25 17:37 54.65287 18.64840 2533 ft 206 kts 349°
2026-04-25 17:37 54.66357 18.63619 2370 ft 189 kts 294°
2026-04-25 17:38 54.66256 18.61441 2067 ft 194 kts 243°
2026-04-25 17:38 54.65682 18.60220 1913 ft 199 kts 236°
2026-04-25 17:38 54.64573 18.57782 1612 ft 192 kts 244°
2026-04-25 17:38 54.64011 18.55701 1412 ft 192 kts 255°
2026-04-25 17:39 54.63679 18.53496 1483 ft 192 kts 260°
2026-04-25 17:39 54.63382 18.51275 1380 ft 191 kts 260°
2026-04-25 17:39 54.63077 18.49058 1227 ft 188 kts 257°
2026-04-25 17:39 54.62665 18.46898 1388 ft 189 kts 251°
2026-04-25 17:40 54.62085 18.44847 1636 ft 190 kts 245°
2026-04-25 17:40 54.61304 18.42979 1896 ft 195 kts 233°
2026-04-25 17:40 54.60145 18.41733 1917 ft 220 kts 186°
2026-04-25 17:40 54.59129 18.43473 1322 ft 235 kts 81°
2026-04-25 17:41 54.60086 18.45516 1248 ft 224 kts 35°
2026-04-25 17:41 54.61057 18.47668 1183 ft 231 kts 59°
2026-04-25 17:41 54.61718 18.50205 1232 ft 231 kts 63°
2026-04-25 17:41 54.62402 18.52720 1283 ft 229 kts 53°
2026-04-25 17:42 54.63400 18.54817 1370 ft 224 kts 38°
2026-04-25 17:42 54.64595 18.56573 1466 ft 224 kts 31°
2026-04-25 17:42 54.65988 18.57108 1417 ft 200 kts 340°
2026-04-25 17:42 54.67173 18.56141 1651 ft 186 kts 311°
2026-04-25 17:43 54.67644 18.54102 1799 ft 186 kts 277°
2026-04-25 17:43 54.67525 18.51903 1666 ft 185 kts 257°
2026-04-25 17:43 54.66883 18.49928 1574 ft 196 kts 234°
2026-04-25 17:43 54.65710 18.48659 1805 ft 208 kts 205°
2026-04-25 17:44 54.64227 18.48336 2161 ft 220 kts 186°
2026-04-25 17:44 54.62671 18.48608 2550 ft 231 kts 169°
2026-04-25 17:44 54.61250 18.50155 2470 ft 245 kts 141°
2026-04-25 17:44 54.60238 18.52502 2479 ft 246 kts 116°
2026-04-25 17:45 54.59756 18.55334 2612 ft 245 kts 103°
2026-04-25 17:45 54.59062 18.56763 2560 ft 236 kts 162°
2026-04-25 17:45 54.56917 18.57302 2665 ft 236 kts 186°
2026-04-25 17:45 54.55259 18.57448 2798 ft 239 kts 184°
2026-04-25 17:46 54.53586 18.57855 2508 ft 248 kts 167°
2026-04-25 17:46 54.52022 18.59044 2094 ft 243 kts 156°
2026-04-25 17:46 54.50896 18.61144 2268 ft 257 kts 119°
2026-04-25 17:46 54.50096 18.64010 2557 ft 262 kts 114°
2026-04-25 17:47 54.49397 18.66834 2545 ft 258 kts 112°
2026-04-25 17:47 54.48721 18.69709 2533 ft 258 kts 112°
2026-04-25 17:47 54.48023 18.72557 2527 ft 257 kts 123°
2026-04-25 17:47 54.46761 18.74601 2543 ft 251 kts 156°
2026-04-25 17:48 54.43621 18.76980 2532 ft 245 kts 165°
2026-04-25 17:48 54.42051 18.78011 2516 ft 231 kts 166°
2026-04-25 17:48 54.40531 18.78996 2516 ft 233 kts 166°
2026-04-25 17:49 54.39007 18.79972 2519 ft 234 kts 167°
2026-04-25 17:49 54.37485 18.80948 2520 ft 233 kts 167°
2026-04-25 17:49 54.35946 18.81928 2517 ft 240 kts 167°
2026-04-25 17:49 54.34394 18.82914 2510 ft 239 kts 167°
2026-04-25 17:50 54.32850 18.83927 2511 ft 239 kts 159°
2026-04-25 17:50 54.31451 18.85592 2512 ft 245 kts 146°
2026-04-25 17:50 54.30144 18.87489 2513 ft 248 kts 143°
2026-04-25 17:50 54.28864 18.89451 2508 ft 247 kts 142°
2026-04-25 17:51 54.27598 18.91432 2503 ft 246 kts 142°
2026-04-25 17:51 54.26359 18.93395 2508 ft 247 kts 142°
2026-04-25 17:51 54.25020 18.95259 2502 ft 242 kts 151°
2026-04-25 17:51 54.23619 18.96788 2509 ft 242 kts 155°
2026-04-25 17:52 54.22180 18.98250 2506 ft 240 kts 156°
2026-04-25 17:52 54.21690 18.98737 2506 ft 241 kts 156°
2026-04-25 17:52 54.19283 19.01094 2499 ft 240 kts 156°
2026-04-25 17:52 54.17833 19.02499 2502 ft 239 kts 156°
2026-04-25 17:53 54.16383 19.03900 2508 ft 240 kts 156°
2026-04-25 17:53 54.14930 19.05301 2509 ft 239 kts 157°
2026-04-25 17:53 54.13495 19.06726 2507 ft 242 kts 149°
2026-04-25 17:53 54.12212 19.08628 2512 ft 246 kts 140°
2026-04-25 17:54 54.11011 19.10686 2508 ft 245 kts 138°
2026-04-25 17:54 54.09832 19.12804 2515 ft 246 kts 137°
2026-04-25 17:54 54.08667 19.14929 2519 ft 246 kts 137°
2026-04-25 17:54 54.07526 19.16997 2479 ft 227 kts 142°
2026-04-25 17:55 54.06278 19.18345 1680 ft 201 kts 170°
2026-04-25 17:55 54.04955 19.18313 1225 ft 186 kts 199°
2026-04-25 17:55 54.03747 19.17555 644 ft 178 kts 219°
2026-04-25 17:55 54.02979 19.15986 192 ft 174 kts 250°
2026-04-25 17:56 54.02717 19.14058 20 ft 155 kts 259°
2026-04-25 17:56 54.02582 19.12872 20 ft 72 kts 259°
2026-04-25 17:56 54.02591 19.12474 18 ft 21 kts 333°
2026-04-25 17:56 54.02745 19.12421 15 ft 23 kts 349°
2026-04-25 17:57 54.02861 19.12470 15 ft 13 kts 35°
2026-04-25 17:57 54.02889 19.12480 15 ft 0 kts 352°